Zurück zum Katalog

GEESAT 4-03

AktivKommunikationLEO
NORAD 65121·PAYLOAD·🇨🇳 China

Gestartet Aug 8, 2025 von Yellow Sea Launch Area

Loading…

Nächste Überflüge (nächste 24 Stunden)

TLE

AktuellSource: Space-Track

Epoche: Sep 14, 2026, 14:26 UTC

1 65121U 25170C   26257.60189362  .00001206  00000-0  16928-3 0  9995
2 65121  49.9920 119.3608 0020399  44.9827 315.2760 14.84265173 59712

Verfolge GEESAT 4-03 in Echtzeit mit AllMySat

Download on the App Store